(316056) = 2009 HS57

Discovered at Tzec Maun on 2009-04-24 by S. Karge.

Orbit

Orbit type: Main Belt

Note: WebGL enabled browser required.

epoch2024-03-31.0
epoch JD2460400.5
perihelion date2024-07-23.43593
perihelion JD2460514.93593
argument of perihelion (°)134.04865
ascending node (°)149.16048
inclination (°)7.12003
eccentricity0.1197075
perihelion distance (AU)2.0914554
Tisserand w.r.t. Jupiter3.5
ΔV w.r.t. Earth (km/sec)9.3
semimajor axis (AU)2.3758642
mean anomaly (°)329.20120
mean daily motion (°/day)0.26913580
aphelion distance (AU)2.660
period (years)3.66
P-vector [x]0.23134741
P-vector [y]-0.92427871
P-vector [z]-0.30362353
Q-vector [x]0.97079401
Q-vector [y]0.23970617
Q-vector [z]0.00999716
absolute magnitude17.03
phase slope0.15
uncertainty0
referenceMPEC 2024-C115
observations used320
oppositions13
arc length (days)7025
first opposition used2003
last opposition used2023
residual rms (arc-secs)0.72
perturbers coarse indicatorM-v
perturbers precise indicator003Ek
first observation date used2003-11-26.0
last observation date used2023-02-19.0
computer nameMPCLINUX
JD of orbit computation2456937.502951
perihelion JD uncertainty (days)1.2761E-04
argument of perihelion uncertainty (°)7.7367E-05
ascending node uncertainty (°)6.8962E-05
inclination uncertainty (°)6.3995E-06
eccentricity uncertainty 5.8704E-08
perihelion distance uncertainty (AU)1.3992E-07
Minimum Orbit Intersection Distances (in AU)
for orbit epoch: 2460200.5, reference: E2024-CB5
Mercury1.64174
Venus1.37089
Earth1.08147
Mars0.66849
Jupiter2.48024
Saturn6.41197
Uranus15.914
Neptune27.338

Observations

334 total observations over interval: 2003 11 26.36342 – 2023 02 19.284671
These data are available for download (format description).

Date (UT) J2000 RA J2000 Dec Magn Location Ref
2003 11 26.36342 04 06 10.66 +09 09 07.7 20.8 V 691 – Steward Observatory, Kitt Peak-Spacewatch MPS 288101
2003 11 26.39184 04 06 08.80 +09 09 04.0 20.8 V 691 – Steward Observatory, Kitt Peak-Spacewatch MPS 288101
2003 11 26.42301 04 06 06.71 +09 08 58.9 20.7 V 691 – Steward Observatory, Kitt Peak-Spacewatch MPS 288101
2006 08 13.40210 22 25 53.40 -09 31 31.4 19.6 R 644 – Palomar Mountain/NEAT MPS 288101
2006 08 13.42509 22 25 52.30 -09 31 43.6 20.2 R 644 – Palomar Mountain/NEAT MPS 288101
2006 08 13.44623 22 25 51.32 -09 31 55.1 20.0 R 644 – Palomar Mountain/NEAT MPS 288101
2006 08 18.30949 22 22 05.56 -10 16 58.9 19.3 R 699 – Lowell Observatory-LONEOS MPS 288101
2006 08 18.32407 22 22 04.96 -10 17 08.6   699 – Lowell Observatory-LONEOS MPS 288101
2006 08 18.33866 22 22 04.21 -10 17 16.7   699 – Lowell Observatory-LONEOS MPS 288101
2006 08 18.35322 22 22 03.57 -10 17 25.0   699 – Lowell Observatory-LONEOS MPS 288101
2009 03 19.38711 14 26 41.05 -05 02 48.3 20.2 V 691 – Steward Observatory, Kitt Peak-Spacewatch MPS 286460
2009 03 19.40494 14 26 40.80 -05 02 41.4 20.3 V 691 – Steward Observatory, Kitt Peak-Spacewatch MPS 286460
2009 03 19.42276 14 26 40.50 -05 02 34.0 20.3 V 691 – Steward Observatory, Kitt Peak-Spacewatch MPS 286460
2009 04 01.40597 14 21 18.18 -03 27 50.1 19.9 V 703 – Catalina Sky Survey MPS 287475
2009 04 01.41392 14 21 17.71 -03 27 47.8 20.2 V 703 – Catalina Sky Survey MPS 287475
2009 04 01.42198 14 21 17.35 -03 27 43.8 20.1 V 703 – Catalina Sky Survey MPS 287475
2009 04 01.42994 14 21 16.99 -03 27 39.9 20.0 V 703 – Catalina Sky Survey MPS 287475
2009 04 17.31329 14 09 27.03 -01 22 00.1 20.2 V 703 – Catalina Sky Survey MPS 286460
2009 04 17.31925 14 09 26.67 -01 21 56.9 19.6 V 703 – Catalina Sky Survey MPS 286460
2009 04 17.32518 14 09 26.38 -01 21 54.1 20.0 V 703 – Catalina Sky Survey MPS 286460
2009 04 17.33120 14 09 26.06 -01 21 52.0 20.0 V 703 – Catalina Sky Survey MPS 286460
2009 04 24.22811 14 03 20.99 -00 31 54.2 19.5 R H10 – Tzec Maun Observatory, Mayhill MPS 285772
2009 04 24.23683 14 03 20.54 -00 31 50.6 19.1 R H10 – Tzec Maun Observatory, Mayhill MPS 285772
2009 04 24.24301 14 03 20.16 -00 31 48.7 19.5 R H10 – Tzec Maun Observatory, Mayhill MPS 285772
2009 04 24.24934 14 03 19.83 -00 31 45.6 19.5 R H10 – Tzec Maun Observatory, Mayhill MPS 285772
2009 04 24.25390 14 03 19.55 -00 31 44.2 19.1 R H10 – Tzec Maun Observatory, Mayhill MPS 285772
2009 04 24.98931 14 02 40.03 -00 26 48.1 19.4 V B01 – Taunus Observatory, Frankfurt MPS 285772
2009 04 24.99700 14 02 39.60 -00 26 45.6 19.3 V B01 – Taunus Observatory, Frankfurt MPS 285772
2009 04 25.00470 14 02 39.18 -00 26 42.2 19.1 V B01 – Taunus Observatory, Frankfurt MPS 285772
2009 04 25.01239 14 02 38.74 -00 26 39.7 19.1 V B01 – Taunus Observatory, Frankfurt MPS 285772
2009 04 26.36674 14 01 26.20 -00 17 44.1 19.1 R H10 – Tzec Maun Observatory, Mayhill MPS 285772
2009 04 26.37235 14 01 25.89 -00 17 42.2 19.0 R H10 – Tzec Maun Observatory, Mayhill MPS 285772
2009 04 26.38994 14 01 24.98 -00 17 34.6 19.3 R H10 – Tzec Maun Observatory, Mayhill MPS 285772
2009 04 28.27347 13 59 45.13 -00 05 42.4 19.6 V 703 – Catalina Sky Survey MPS 285772
2009 04 28.28273 13 59 44.62 -00 05 40.6 19.9 V 703 – Catalina Sky Survey MPS 285772
2009 04 28.29115 13 59 44.12 -00 05 36.4 19.5 V 703 – Catalina Sky Survey MPS 285772
2009 04 28.29951 13 59 43.76 -00 05 32.0 19.4 V 703 – Catalina Sky Survey MPS 285772
2009 04 30.29409 13 57 59.04 +00 06 15.2 19.6 V G96 – Mt. Lemmon Survey MPS 285772
2009 04 30.30233 13 57 58.60 +00 06 17.9 19.6 V G96 – Mt. Lemmon Survey MPS 285772
2009 04 30.31039 13 57 58.14 +00 06 20.6 19.7 V G96 – Mt. Lemmon Survey MPS 285772
2009 04 30.31865 13 57 57.70 +00 06 23.8 19.6 V G96 – Mt. Lemmon Survey MPS 285772
2010 10 04.30015 01 51 06.41 +01 24 44.9 19.6   704 – Lincoln Laboratory ETS, New Mexico MPS 349564
2010 10 04.34073 01 51 04.40 +01 24 26.4 20.0   704 – Lincoln Laboratory ETS, New Mexico MPS 349564
2010 10 04.35389 01 51 03.67 +01 24 19.9 19.9   704 – Lincoln Laboratory ETS, New Mexico MPS 349564
2010 10 13.30631 01 43 17.90 +00 14 14.1 19.9 V G96 – Mt. Lemmon Survey MPS 351409
2010 10 13.31325 01 43 17.50 +00 14 11.2 19.9 V G96 – Mt. Lemmon Survey MPS 351409
2010 10 13.32024 01 43 17.11 +00 14 07.9 19.8 V G96 – Mt. Lemmon Survey MPS 351409
2010 10 13.32723 01 43 16.71 +00 14 04.9 19.9 V G96 – Mt. Lemmon Survey MPS 351409
2010 10 31.323992 01 27 23.688 -01 37 50.56 20.85 g F51 – Pan-STARRS 1, Haleakala MPS 365767
2010 10 31.335214 01 27 23.136 -01 37 53.72 20.86 g F51 – Pan-STARRS 1, Haleakala MPS 365767
2010 11 11.315252 01 19 45.594 -02 14 40.91 20.54 r F51 – Pan-STARRS 1, Haleakala MPS 365767
2010 11 11.326365 01 19 45.174 -02 14 42.28 20.40 r F51 – Pan-STARRS 1, Haleakala MPS 365767
2010 11 22.404007 01 14 56.710 -02 23 35.20 20.74 i F51 – Pan-STARRS 1, Haleakala MPS 365767
2010 11 22.415322 01 14 56.471 -02 23 34.69 20.92 i F51 – Pan-STARRS 1, Haleakala MPS 365767
2012 01 15.55178 08 59 15.113 +12 37 21.84 21.0 i F51 – Pan-STARRS 1, Haleakala MPS 407768
2012 01 15.56444 08 59 14.437 +12 37 25.55 20.9 i F51 – Pan-STARRS 1, Haleakala MPS 407769
2012 01 27.28450 08 48 18.21 +13 46 31.5 20.8 V G96 – Mt. Lemmon Survey MPS 410236
2012 01 27.29185 08 48 17.82 +13 46 34.2 20.3 V G96 – Mt. Lemmon Survey MPS 410236
2012 01 27.29917 08 48 17.35 +13 46 37.0 20.8 V G96 – Mt. Lemmon Survey MPS 410236
2012 01 27.30649 08 48 16.88 +13 46 39.8 20.9 V G96 – Mt. Lemmon Survey MPS 410236
2012 02 19.19366 08 26 44.08 +16 12 07.2 21.8 V G96 – Mt. Lemmon Survey MPS 414122
2012 02 19.19946 08 26 43.80 +16 12 08.4 22.1 V G96 – Mt. Lemmon Survey MPS 414122
2012 02 19.20522 08 26 43.54 +16 12 11.0 20.9 V G96 – Mt. Lemmon Survey MPS 414122
2012 02 19.21097 08 26 43.29 +16 12 13.3 21.2 V G96 – Mt. Lemmon Survey MPS 414122
2013 07 12.38500 17 44 32.948 -12 59 08.59 19.8 g F51 – Pan-STARRS 1, Haleakala MPS 472595
2013 07 12.38564 17 44 32.922 -12 59 08.99 19.9 g F51 – Pan-STARRS 1, Haleakala MPS 472595
2013 07 12.39495 17 44 32.524 -12 59 11.27 19.9 g F51 – Pan-STARRS 1, Haleakala MPS 472595
2013 07 12.39558 17 44 32.503 -12 59 11.92 20.0 g F51 – Pan-STARRS 1, Haleakala MPS 472595
2014 09 22.52146 04 41 24.362 +13 22 38.69 21.2 w F51 – Pan-STARRS 1, Haleakala MPS 536261
2014 09 22.53370 04 41 24.665 +13 22 36.78 21.2 w F51 – Pan-STARRS 1, Haleakala MPS 536261
2014 09 22.54598 04 41 24.974 +13 22 34.70 21.1 w F51 – Pan-STARRS 1, Haleakala MPS 536261
2014 09 22.55824 04 41 25.283 +13 22 33.01 21.2 w F51 – Pan-STARRS 1, Haleakala MPS 536261
2014 11 05.55074 04 33 23.208 +10 40 12.44 20.2 i F51 – Pan-STARRS 1, Haleakala MPS 545553
2014 11 05.56191 04 33 22.621 +10 40 09.40 20.1 i F51 – Pan-STARRS 1, Haleakala MPS 545553
2014 11 05.57309 04 33 22.075 +10 40 06.87 20.0 i F51 – Pan-STARRS 1, Haleakala MPS 545553
2014 11 16.34662 04 23 43.76 +10 00 50.2 21.0 V 703 – Catalina Sky Survey MPS 547412
2014 11 16.36267 04 23 42.85 +10 00 46.3 21.5 V 703 – Catalina Sky Survey MPS 547412
2014 11 21.36926 04 18 41.676 +09 45 16.03 20.3 w F51 – Pan-STARRS 1, Haleakala MPS 549433
2014 11 21.38131 04 18 40.915 +09 45 13.98 20.3 w F51 – Pan-STARRS 1, Haleakala MPS 549433
2014 11 21.40549 04 18 39.379 +09 45 09.86 20.2 w F51 – Pan-STARRS 1, Haleakala MPS 549433
2014 11 23.36428 04 16 38.689 +09 39 44.49 20.2 w F51 – Pan-STARRS 1, Haleakala MPS 549433
2014 11 23.37633 04 16 37.920 +09 39 42.63 20.2 w F51 – Pan-STARRS 1, Haleakala MPS 549433
2014 11 23.38835 04 16 37.150 +09 39 40.70 20.3 w F51 – Pan-STARRS 1, Haleakala MPS 549433
2014 11 23.40042 04 16 36.380 +09 39 38.87 20.2 w F51 – Pan-STARRS 1, Haleakala MPS 549433
2014 11 29.33111 04 10 28.66 +09 25 47.3 20.1 V 703 – Catalina Sky Survey MPS 551331
2014 11 29.35673 04 10 27.23 +09 25 46.1 20.1 V 703 – Catalina Sky Survey MPS 551331
2014 12 12.44840 03 57 50.152 +09 10 57.19 20.4 r F51 – Pan-STARRS 1, Haleakala MPS 552929
2014 12 12.47087 03 57 48.941 +09 10 56.62 20.5 r F51 – Pan-STARRS 1, Haleakala MPS 552929
2014 12 12.48207 03 57 48.333 +09 10 56.62 20.2 r F51 – Pan-STARRS 1, Haleakala MPS 552929
2015 01 15.33021 03 42 29.689 +10 20 01.74 21.1 w F51 – Pan-STARRS 1, Haleakala MPS 562326
